This demonstration page uses our WeatherBlox Daily Observations layout. Learn more.

Left ArrowRight Arrow

38.88101, -77.10428

Hourly Observations for May 21, 2020

Temp ( °F °C ) Dew Point ( °F °C ) Humidity (%) Winds ( mph kmh ) Pressure ( in mb ) Visibility ( mi km ) Precip ( " mm )
12:35 am 00:35 Cloudy 52 11.1 45 7.2 77 77 NE 10 17 30.37 1028 10 16.0934 0 0
12:52 am 00:52 Cloudy 52 11.1 45 7.2 77 77 ENE 8 13 30.37 1029 10 16.0934 0 0
1:52 am 01:52 Cloudy 52 11.1 45 7.2 77 77 ENE 10 17 30.36 1028 10 16.0934 0 0
2:52 am 02:52 Cloudy 51 10.6 44 6.7 77 77 NE 12 19 30.35 1028 10 16.0934 0 0
3:52 am 03:52 Cloudy 51 10.6 45 7.2 80 80 NE 9 15 30.34 1027 10 16.0934 0 0
4:52 am 04:52 Cloudy 51 10.6 45 7.2 80 80 NE 7 11 30.33 1027 10 16.0934 0 0
5:52 am 05:52 Cloudy 51 10.6 46 7.8 83 83 NE 10 17 30.33 1027 10 16.0934 0 0
6:02 am 06:02 Cloudy 51 10.6 46 7.8 83 83 ENE 10 17 30.34 1027 10 16.0934 0 0
6:52 am 06:52 Cloudy 52 11.1 47 8.3 83 83 NE 14 22 30.34 1027 10 16.0934 0 0
7:52 am 07:52 Cloudy 53 11.7 47 8.3 80 80 NE 8 13 30.35 1028 10 16.0934 0 0
8:38 am 08:38 Cloudy 54 12.2 48 8.9 80 80 NE 9 15 30.35 1028 10 16.0934 0 0
8:52 am 08:52 Cloudy 54 12.2 48 8.9 80 80 NE 12 19 30.35 1028 10 16.0934 0 0
9:52 am 09:52 Cloudy 56 13.3 49 9.4 77 77 NE 13 20 30.35 1028 10 16.0934 0 0
10:52 am 10:52 Cloudy 60 15.6 51 10.6 72 72 NE 10 17 30.34 1028 10 16.0934 0 0
11:36 am 11:36 Cloudy 63 17.2 53 11.7 70 70 NE 9 15 30.34 1027 10 16.0934 0 0
11:52 am 11:52 Cloudy 63 17.2 53 11.7 70 70 ENE 9 15 30.34 1027 10 16.0934 0 0
12:52 pm 12:52 Cloudy 67 19.4 55 12.8 66 66 ENE 7 11 30.32 1027 10 16.0934 0 0
1:52 pm 13:52 Cloudy 71 21.7 56 13.3 59 59 E 10 17 30.31 1026 10 16.0934 0 0
2:52 pm 14:52 Cloudy 71 21.7 57 13.9 61 61 E 10 17 30.29 1026 10 16.0934 0 0
3:52 pm 15:52 Mostly Cloudy 71 21.7 56 13.3 59 59 ESE 7 11 30.27 1025 10 16.0934 0 0
4:52 pm 16:52 Mostly Cloudy 71 21.7 55 12.8 57 57 ESE 17 28 30.23 1024 10 16.0934 0 0
5:52 pm 17:52 Cloudy 70 21.1 56 13.3 61 61 E 13 20 30.23 1024 10 16.0934 0 0
6:52 pm 18:52 Cloudy 69 20.6 56 13.3 63 63 ESE 14 22 30.23 1024 10 16.0934 0 0
7:52 pm 19:52 Cloudy 69 20.6 56 13.3 63 63 ESE 10 17 30.22 1023 10 16.0934 0 0
8:52 pm 20:52 Cloudy 68 20 57 13.9 68 68 E 10 17 30.22 1023 10 16.0934 0 0
9:52 pm 21:52 Cloudy 67 19.4 57 13.9 71 71 E 9 15 30.22 1023 10 16.0934 0 0
10:52 pm 22:52 Cloudy 65 18.3 57 13.9 76 76 E 9 15 30.22 1023 10 16.0934 0 0
11:52 pm 23:52 Cloudy 64 17.8 57 13.9 78 78 ENE 9 15 30.21 1023 10 16.0934 0 0

Powered by AerisWeather